Theta_e
299 300 299 299 301 303 304 304 304 305 305 304 304 303 302 306 306 307 308 312 310 308 308 309 310 310 310 307 308 306 311 314 314 314 312 308 309 307 312 314 314 313 312 311 311
300 299 300 299 300 302 304 304 305 306 305 305 306 304 303 306 306 307 307 308 308 307 308 308 306 306 304 305 305 309 309 312 307 309 310 309 311 309 312 312 312 312 308 308 309
300 299 299 299 299 301 303 304 304 304 305 306 305 306 307 307 303 305 308 308 307 307 307 307 308 305 304 304 303 305 307 306 307 307 306 309 310 310 310 312 310 308 306 306 307
300 300 299 299 301 302 303 303 303 304 304 305 305 306 306 308 303 307 307 307 308 307 307 307 304 305 304 305 304 306 306 306 306 305 308 309 309 311 310 311 307 305 305 305 306
300 300 299 299 300 303 304 304 304 303 304 304 306 308 306 304 306 307 307 308 308 308 308 306 306 304 305 305 305 306 307 306 305 306 306 306 308 310 310 308 306 306 304 303 305
299 300 300 299 299 303 302 303 304 304 303 304 306 306 305 305 307 306 307 308 309 309 308 307 307 306 304 305 305 306 306 306 305 305 307 306 305 305 304 304 303 303 302 301 302
299 299 300 300 300 300 302 304 303 303 304 306 307 307 305 305 306 306 307 308 309 309 308 308 307 307 306 305 306 306 307 306 305 304 306 306 306 304 301 301 301 300 300 301 301
301 299 299 300 300 300 303 304 303 303 304 306 307 305 305 306 306 306 308 308 309 309 310 309 308 305 306 307 305 306 305 307 307 305 306 306 308 304 301 300 299 298 298 299 299
303 300 299 300 300 301 301 303 304 304 306 306 306 303 304 305 306 305 307 308 309 309 309 307 306 304 304 304 304 304 308 308 306 305 305 306 308 304 301 300 299 298 298 298 298
304 301 299 300 302 301 300 302 304 304 306 305 304 302 303 304 305 304 307 308 309 307 305 304 302 304 303 303 306 310 308 307 307 305 305 306 306 304 301 300 300 298 297 297 297
305 302 299 300 300 302 302 301 304 301 303 303 303 303 304 305 305 304 306 307 306 305 306 303 305 307 306 306 307 308 308 306 305 305 306 306 305 303 302 301 301 299 298 297 298
307 303 299 300 301 303 304 306 303 302 300 301 303 303 304 304 303 303 306 306 305 307 306 303 308 306 306 305 307 307 308 306 304 305 306 306 306 303 302 302 301 300 299 298 297
308 305 299 300 301 303 304 304 304 303 300 300 302 301 302 304 305 304 305 306 306 306 304 304 308 306 306 306 307 307 308 307 307 305 306 304 303 305 303 302 301 300 299 298 297
308 306 299 301 302 303 303 303 302 306 303 302 301 301 303 304 305 305 303 305 305 307 305 305 304 306 305 307 306 310 306 307 307 306 309 304 305 303 303 302 302 300 298 297 297
309 306 299 302 303 302 303 304 302 305 311 302 300 302 303 303 303 304 302 303 305 305 302 305 305 304 305 307 307 306 305 306 307 306 306 306 301 303 304 304 302 300 298 297 297
309 306 299 302 301 302 303 303 307 312 312 299 301 303 303 303 304 304 301 301 302 302 303 304 304 304 305 305 306 305 307 301 302 303 299 307 303 303 305 305 303 301 298 296 296
309 307 300 301 301 302 303 306 313 317 302 301 302 303 302 303 304 304 302 301 299 296 293 298 303 301 303 304 303 303 300 294 295 295 301 302 302 303 302 303 302 301 299 296 296
309 307 300 300 300 301 305 308 315 309 302 300 302 302 301 302 304 305 304 300 300 296 291 293 295 302 302 305 306 306 301 296 293 300 299 302 307 306 304 302 301 300 298 296 295
308 304 301 299 300 303 306 309 317 311 303 302 301 301 301 303 303 304 304 301 300 298 294 292 297 301 301 302 302 302 299 302 296 292 301 302 303 303 304 303 301 300 298 295 294
308 305 304 299 299 304 305 312 308 303 300 300 307 301 300 301 304 304 303 303 302 301 295 294 294 296 301 303 302 304 304 297 294 292 293 298 300 304 306 304 302 301 299 295 294
307 306 302 299 302 301 306 307 305 300 301 301 302 301 300 302 301 302 302 303 301 301 297 292 293 295 299 297 301 303 299 304 301 300 294 295 296 297 303 303 301 299 298 295 294
305 306 302 299 302 291 301 304 300 301 301 299 300 300 302 300 302 301 303 302 300 300 303 299 295 294 293 298 300 301 304 303 294 291 295 297 298 299 301 300 300 299 298 297 294
303 301 300 302 307 301 298 300 300 301 301 299 300 301 301 301 302 302 302 300 299 300 301 301 295 292 296 295 297 301 302 303 299 296 296 293 295 296 298 300 299 299 297 296 295
303 306 299 298 299 302 301 302 302 301 301 299 300 301 301 300 299 301 302 300 300 301 303 297 289 295 301 299 297 298 298 303 297 289 293 296 293 296 291 292 293 292 290 290 291
303 305 301 300 296 301 301 304 303 304 302 300 301 300 301 300 297 301 301 300 300 303 300 298 294 288 291 295 298 298 295 297 295 296 292 290 292 296 294 292 290 289 292 295 293
303 302 299 296 302 302 304 304 304 303 301 301 301 301 299 300 302 301 301 300 300 301 299 298 297 290 289 289 292 295 295 294 295 290 294 296 298 298 297 296 292 292 291 292 292
304 303 308 305 302 307 309 309 304 303 302 301 300 300 299 298 298 297 298 298 299 300 300 298 294 289 295 286 287 298 293 295 294 295 298 296 298 297 299 301 298 299 296 293 294
Wind_Speed
7 8 9 9 8 7 7 8 9 10 9 8 6 4 3 5 18 25 16 16 17 18 11 7 11 8 7 5 6 3 4 3 3 4 5 6 7 6 2 5 4 5 4 11 20
8 8 10 10 8 6 5 6 9 10 9 9 9 6 2 4 6 19 17 18 18 14 8 11 7 9 5 6 5 5 4 2 2 1 3 0 6 5 5 6 6 2 11 17 21
7 9 10 11 8 6 3 3 5 8 8 8 7 7 6 2 3 6 21 20 17 8 5 5 5 5 7 5 6 3 3 1 3 3 1 3 2 6 4 6 5 6 12 18 17
7 8 9 10 9 6 4 2 4 7 7 7 9 6 6 2 4 11 20 19 15 8 6 13 6 5 5 5 4 6 3 2 4 4 1 2 4 4 6 1 2 5 8 11 14
7 8 9 9 9 6 5 3 3 4 3 8 11 2 1 6 3 14 16 16 15 21 19 5 7 4 4 4 3 5 1 3 3 4 5 8 6 4 2 1 3 6 7 7 13
7 9 9 9 8 6 6 6 3 4 3 4 10 4 1 6 5 16 13 12 15 19 21 13 3 2 6 4 4 2 4 3 5 6 3 4 2 3 3 4 7 6 7 7 10
8 9 10 11 7 7 6 7 2 3 4 4 4 3 10 4 6 15 9 8 11 14 6 9 5 4 3 3 2 2 2 4 8 7 2 3 5 4 3 5 6 7 7 7 11
8 10 11 11 10 8 4 5 3 3 2 3 4 3 3 3 6 15 9 4 9 9 8 9 7 6 4 1 6 5 4 4 2 9 4 2 1 3 2 5 6 6 6 6 8
7 9 12 12 10 6 2 6 1 2 4 2 3 3 1 4 5 13 9 7 5 11 11 8 7 5 6 4 4 7 1 3 6 4 4 6 2 1 3 4 4 5 5 6 6
6 8 11 13 10 6 3 2 9 1 3 3 6 4 5 5 7 12 7 8 6 3 5 9 6 5 5 6 1 2 3 4 4 5 6 4 3 2 1 3 2 4 5 6 6
7 8 9 11 8 7 1 2 3 4 13 4 2 2 2 9 4 11 9 3 5 8 4 5 8 3 3 3 1 1 1 3 4 2 6 2 4 5 2 1 1 3 4 5 5
6 8 9 8 6 6 2 4 3 4 6 4 2 2 2 4 5 15 12 5 6 4 2 6 4 5 4 7 5 3 2 4 6 4 3 3 6 5 3 2 2 1 2 3 5
6 7 9 6 4 5 8 8 7 4 5 3 2 2 3 4 3 8 7 2 4 6 6 6 1 3 4 7 5 2 2 4 4 6 0 6 5 4 3 2 2 2 2 3 4
5 7 7 4 1 1 3 5 3 2 5 3 3 4 3 1 4 3 5 2 5 4 3 4 4 3 5 5 3 3 2 4 4 4 1 4 4 4 4 6 5 5 5 5 5
5 5 4 4 3 1 3 2 1 1 3 1 3 1 3 4 1 7 9 5 4 3 4 1 2 4 5 2 2 6 4 3 2 1 2 2 3 6 2 6 8 6 6 6 4
5 3 3 1 3 4 4 3 2 5 5 1 1 3 2 4 4 3 4 8 3 4 5 1 1 3 0 2 3 5 1 3 3 1 3 2 4 5 3 4 3 3 6 6 4
6 2 2 1 3 5 5 2 5 3 4 2 1 2 2 3 3 4 4 5 3 4 3 6 3 2 3 4 3 8 4 3 5 4 4 1 2 8 3 4 3 5 7 6 4
7 2 1 5 5 5 3 5 2 1 5 1 1 2 3 1 1 2 2 2 4 5 3 3 6 4 5 4 1 3 2 4 4 2 5 2 4 3 2 3 4 5 6 4 5
9 5 2 6 3 3 4 3 6 5 5 8 3 2 2 1 2 3 1 3 3 4 5 4 4 4 3 2 4 5 4 1 5 1 2 4 6 5 2 5 6 8 6 8 7
10 5 0 7 5 1 4 5 3 2 5 2 6 2 5 4 3 3 4 3 4 3 4 2 3 3 2 2 4 3 2 3 3 3 4 5 5 4 4 6 5 6 7 8 6
9 3 1 6 6 4 4 6 4 2 1 4 5 4 4 5 5 4 3 1 3 4 5 3 3 5 1 1 4 3 2 1 1 2 4 1 6 6 6 5 7 8 7 7 7
7 2 2 9 3 1 3 6 4 3 1 1 4 3 7 6 4 3 5 1 6 5 2 3 3 2 6 2 3 3 2 3 4 6 0 2 6 4 6 6 5 8 7 5 6
4 3 3 1 4 3 3 1 3 4 5 5 5 2 1 5 0 2 3 1 6 4 5 4 1 3 7 4 4 3 3 2 4 2 5 5 6 2 5 6 7 8 8 7 6
4 3 2 2 1 5 5 3 3 3 3 4 4 4 4 2 3 5 3 2 3 2 5 5 2 5 5 5 4 3 5 5 5 3 2 6 8 10 6 7 8 8 7 7 7
1 5 5 5 4 5 4 6 7 7 3 4 1 5 7 4 2 5 3 2 2 6 3 3 3 2 4 2 3 4 5 9 9 5 6 4 6 11 10 8 7 4 3 6 6
6 4 1 3 4 15 8 9 12 5 8 6 6 10 8 7 8 10 8 5 5 3 5 1 1 2 4 3 1 6 10 11 8 5 11 11 21 13 7 3 4 6 4 7 6
9 5 5 9 5 10 13 15 11 8 6 4 11 7 8 7 3 2 4 4 7 8 6 5 5 3 5 2 5 7 8 13 5 5 10 6 12 3 3 6 5 6 6 8 8
Wind_Direction
32 19 30 23 22 35 45 57 46 34 26 17 356 318 307 355 27 45 41 341 338 339 350 41 48 41 53 56 37 84 63 79 14 13 297 342 5 3 91 73 44 38 12 326 330
18 18 9 19 14 22 54 62 50 39 38 28 22 23 11 351 8 36 9 360 355 348 12 40 14 15 51 20 21 61 75 70 185 270 292 325 53 309 42 15 357 342 350 351 1
16 10 7 11 15 9 23 60 41 22 26 22 3 6 356 341 53 334 1 6 5 3 45 68 56 48 53 23 352 46 101 264 353 332 288 296 74 10 352 32 20 324 331 346 4
9 9 7 2 16 1 351 348 358 2 22 32 355 317 35 130 82 340 356 7 21 42 86 53 32 55 71 64 332 89 38 65 353 346 12 33 99 50 36 120 23 337 342 349 6
4 358 1 5 9 15 348 344 336 356 13 10 17 35 116 45 41 355 359 18 47 58 51 47 44 92 102 112 68 76 248 45 7 76 79 79 67 110 61 58 27 357 4 8 4
356 352 357 353 4 18 356 343 336 356 5 22 40 33 14 75 4 4 1 26 37 53 49 46 57 36 86 58 70 116 93 28 19 1 55 88 33 99 32 79 41 7 16 7 14
348 349 350 346 352 342 332 333 313 7 69 47 31 72 60 169 10 5 17 24 34 48 56 33 16 58 112 72 340 86 79 30 8 332 56 175 35 28 302 68 47 24 8 10 8
346 349 344 345 342 341 351 18 52 79 45 29 45 64 89 359 0 14 29 42 52 38 52 29 55 84 43 3 23 37 50 23 348 7 340 94 308 16 39 81 40 17 359 17 7
345 348 339 343 342 341 255 13 6 78 32 26 54 79 63 342 17 5 5 354 36 68 55 53 58 76 15 65 24 16 0 340 331 33 328 32 267 66 58 85 54 23 2 5 3
337 346 340 343 346 344 299 163 56 134 37 43 57 45 21 318 327 346 353 23 49 47 24 37 44 54 27 47 175 331 354 326 286 319 358 10 294 297 40 88 56 17 354 355 6
329 339 347 343 337 348 0 148 3 358 41 91 320 115 354 327 9 1 349 15 32 50 63 24 64 31 52 8 281 223 253 297 278 283 355 270 280 260 289 45 12 25 358 339 336
316 334 346 343 345 6 58 75 119 137 87 29 58 53 38 349 10 349 9 71 48 75 348 36 61 292 131 49 64 44 343 311 274 268 352 328 287 245 245 247 234 219 307 310 321
306 335 340 344 337 14 88 114 107 109 91 9 44 39 323 28 63 335 22 52 92 53 43 115 253 318 92 57 25 24 38 318 268 323 87 342 308 268 261 220 184 237 267 276 289
297 330 338 352 27 57 76 123 111 89 74 318 349 9 359 82 50 352 31 80 37 135 97 84 335 51 82 82 47 312 190 296 298 9 324 45 287 286 258 258 245 246 274 278 282
276 323 328 42 119 86 144 144 90 2 29 0 345 359 20 68 90 5 39 30 63 60 88 228 25 23 71 90 95 238 347 278 289 343 28 5 69 269 22 281 262 254 254 266 243
256 294 309 100 86 123 131 115 53 44 261 341 309 1 50 33 21 325 33 50 68 54 29 74 212 73 153 275 170 302 51 34 29 45 32 289 108 286 241 235 305 260 258 259 235
231 280 277 147 128 134 125 65 36 142 4 255 143 68 74 22 43 45 20 35 83 47 332 344 347 347 43 41 49 35 45 348 347 14 215 35 93 246 277 255 236 255 261 256 218
213 236 189 116 125 142 107 57 122 218 210 208 106 79 112 335 42 68 51 85 115 102 98 132 331 354 337 90 166 358 79 135 253 322 280 287 240 261 218 267 268 269 266 252 254
193 159 180 121 131 165 84 82 214 200 151 148 57 98 320 244 127 86 350 190 148 143 161 113 311 316 66 115 104 316 33 139 111 8 344 275 292 300 277 289 283 272 268 265 272
171 153 257 123 145 356 80 228 229 146 123 158 161 153 186 214 160 183 199 176 145 117 134 179 41 289 281 159 82 105 170 17 2 22 317 299 287 246 256 260 263 277 256 266 274
164 150 142 131 130 47 165 222 221 217 160 156 186 136 207 189 191 191 184 184 170 119 97 133 117 285 330 345 143 40 355 55 100 127 171 291 274 215 217 219 229 259 260 257 258
170 140 138 148 78 79 188 193 152 161 132 121 116 126 176 166 167 214 196 203 154 146 124 200 146 139 238 210 109 135 230 164 125 279 188 157 276 240 233 248 224 263 275 268 234
142 104 63 180 163 212 294 227 181 152 198 171 170 170 118 167 154 170 144 56 144 138 163 190 325 27 339 7 7 169 187 148 93 57 209 139 264 283 284 275 261 257 273 274 256
113 138 331 12 131 139 148 223 204 227 173 149 137 114 106 76 45 183 161 165 139 128 115 99 91 166 197 199 128 187 174 173 137 121 197 230 292 294 280 270 286 283 278 278 264
144 206 196 189 236 152 180 171 165 198 229 191 94 212 159 141 43 191 152 125 53 154 102 131 211 160 263 281 288 240 188 171 186 207 182 265 229 273 278 269 257 246 287 287 279
147 150 331 135 116 178 186 202 195 178 154 212 196 188 178 169 188 196 150 190 190 156 163 148 202 102 293 353 265 261 225 197 194 222 273 275 282 260 273 240 248 254 238 261 253
179 156 135 165 158 174 206 202 201 143 236 201 188 128 190 208 116 51 84 85 139 143 165 157 136 87 272 326 307 298 220 191 167 191 201 193 226 246 266 249 256 246 217 236 242